Zurück zum Katalog

CHINASAT 12

AktivKommunikationGEO
NORAD 39017·PAYLOAD·🇨🇳 China

Gestartet Nov 27, 2012 von Xichang Satellite Launch Center

Loading…

TLE

AktuellSource: Space-Track

Epoche: Sep 14, 2026, 14:13 UTC

1 39017U 12067A   26257.59243442 -.00000214  00000-0  00000-0 0  9999
2 39017   0.0371 112.4423 0002623  58.2750 123.6320  1.00271106 50404

Verfolge CHINASAT 12 in Echtzeit mit AllMySat

Download on the App Store